SR6WVX Weather Reports


time (UTC)temp
C
wind
direction
speed
KPH
gust
KPH
rain 1hr
cm
rain 24hr
cm
rain mn
cm
humidity
%
barometer
mb
20260504130106 28 270 0.0 0.0 0.00 0.00 0.00 28 1006.6
20260504110559 30 157 0.0 8.0 0.00 0.00 0.00 28 1007.1
20260504100556 28 270 0.0 11.3 0.00 0.00 0.00 30 1007.9
20260504081550 25 225 0.0 0.0 0.00 0.00 0.00 38 1008.2
20260504081050 24 180 0.0 0.0 0.00 0.00 0.00 39 1008.3
20260504080550 23 180 0.0 0.0 0.00 0.00 0.00 40 1008.3
20260504050540 11 315 0.0 0.0 0.00 0.00 0.00 73 1007.9
20260504045540 10 315 0.0 0.0 0.00 0.00 0.00 75 1007.9
20260504045040 9 315 0.0 0.0 0.00 0.00 0.00 75 1007.8
20260504044539 8 315 0.0 0.0 0.00 0.00 0.00 75 1007.8
20260504044039 8 315 0.0 0.0 0.00 0.00 0.00 75 1007.8
20260504043539 7 225 0.0 0.0 0.00 0.00 0.00 75 1007.8
20260504043039 7 225 0.0 0.0 0.00 0.00 0.00 75 1007.8
20260504042538 7 225 0.0 0.0 0.00 0.00 0.00 75 1007.7
20260504042038 7 225 0.0 0.0 0.00 0.00 0.00 75 1007.6
20260504041538 7 225 0.0 0.0 0.00 0.00 0.00 74 1007.6
20260504041037 7 225 0.0 0.0 0.00 0.00 0.00 74 1007.4
20260504040537 7 225 0.0 0.0 0.00 0.00 0.00 74 1007.4
20260504040037 7 225 0.0 0.0 0.00 0.00 0.00 74 1007.6
20260504035537 7 225 0.0 0.0 0.00 0.00 0.00 75 1007.6
20260504035036 7 225 0.0 0.0 0.00 0.00 0.00 76 1007.6
20260504034536 7 225 0.0 0.0 0.00 0.00 0.00 76 1007.5
20260504034036 7 225 0.0 0.0 0.00 0.00 0.00 77 1007.5
20260504033536 7 225 0.0 0.0 0.00 0.00 0.00 78 1007.4
20260504033035 7 225 0.0 0.0 0.00 0.00 0.00 77 1007.6
20260504032535 7 225 0.0 0.0 0.00 0.00 0.00 78 1007.7
20260504032035 7 247 0.0 0.0 0.00 0.00 0.00 77 1007.8
20260504031535 7 247 0.0 0.0 0.00 0.00 0.00 77 1007.5
20260504031034 7 247 0.0 0.0 0.00 0.00 0.00 77 1007.6
20260504030534 7 247 0.0 0.0 0.00 0.00 0.00 77 1007.7
20260504030034 7 157 0.0 0.0 0.00 0.00 0.00 76 1007.7
20260504025534 7 112 0.0 0.0 0.00 0.00 0.00 76 1007.6
20260504025033 7 112 0.0 0.0 0.00 0.00 0.00 76 1007.4
20260504024533 7 112 0.0 0.0 0.00 0.00 0.00 76 1007.5
20260504024033 7 112 0.0 0.0 0.00 0.00 0.00 76 1007.2
20260504023532 7 112 0.0 0.0 0.00 0.00 0.00 76 1007.2
20260504023032 7 112 0.0 0.0 0.00 0.00 0.00 76 1007.2
20260504022532 6 112 0.0 0.0 0.00 0.00 0.00 76 1007.2
20260504022032 6 112 0.0 0.0 0.00 0.00 0.00 76 1007.0
20260504021531 6 112 0.0 0.0 0.00 0.00 0.00 75 1006.9
20260504021031 6 112 0.0 0.0 0.00 0.00 0.00 75 1006.9
20260504020531 6 112 0.0 0.0 0.00 0.00 0.00 75 1006.7
20260504020031 6 112 0.0 0.0 0.00 0.00 0.00 75 1006.7
20260504015530 6 112 0.0 0.0 0.00 0.00 0.00 74 1006.9
20260504015030 6 112 0.0 0.0 0.00 0.00 0.00 74 1007.0
20260504014530 6 112 0.0 0.0 0.00 0.00 0.00 74 1006.9
20260504014030 6 112 0.0 0.0 0.00 0.00 0.00 73 1006.8
20260504013529 7 112 0.0 0.0 0.00 0.00 0.00 73 1006.8
20260504013029 7 112 0.0 0.0 0.00 0.00 0.00 73 1006.8
20260504012529 7 112 0.0 0.0 0.00 0.00 0.00 73 1006.7
20260504012029 7 112 0.0 0.0 0.00 0.00 0.00 73 1006.8
20260504011528 7 112 0.0 0.0 0.00 0.00 0.00 72 1006.8
20260504011028 7 112 0.0 0.0 0.00 0.00 0.00 72 1006.9
20260504010528 7 112 0.0 0.0 0.00 0.00 0.00 71 1006.7
20260504010027 7 112 0.0 0.0 0.00 0.00 0.00 71 1006.6
20260504005527 7 112 0.0 0.0 0.00 0.00 0.00 71 1006.9
20260504005027 7 112 0.0 0.0 0.00 0.00 0.00 70 1006.7
20260504004527 7 112 0.0 0.0 0.00 0.00 0.00 69 1006.7
20260504004026 7 112 0.0 0.0 0.00 0.00 0.00 69 1006.6
20260504003526 7 112 0.0 0.0 0.00 0.00 0.00 69 1006.7
20260504003026 7 112 0.0 0.0 0.00 0.00 0.00 69 1006.7
20260504002526 7 112 0.0 0.0 0.00 0.00 0.00 69 1006.9
20260504002025 7 112 0.0 0.0 0.00 0.00 0.00 68 1006.9
20260504001525 7 112 0.0 0.0 0.00 0.00 0.00 67 1006.9
20260504001025 7 112 0.0 0.0 0.00 0.00 0.00 67 1006.9
20260504000525 7 112 0.0 0.0 0.00 0.00 0.00 66 1006.9
20260504000024 7 112 0.0 0.0 0.00 0.00 0.00 66 1006.9
20260503235524 8 112 0.0 0.0 0.00 0.00 0.00 65 1006.9
20260503235024 8 112 0.0 0.0 0.00 0.00 0.00 66 1007.0
20260503234524 8 112 0.0 0.0 0.00 0.00 0.00 66 1006.9
20260503234023 8 112 0.0 0.0 0.00 0.00 0.00 66 1007.0
20260503233523 8 112 0.0 0.0 0.00 0.00 0.00 65 1006.9
20260503233023 8 112 0.0 0.0 0.00 0.00 0.00 64 1007.0
20260503232522 8 112 0.0 0.0 0.00 0.00 0.00 63 1007.1
20260503232022 8 112 0.0 0.0 0.00 0.00 0.00 63 1007.1
20260503231522 8 112 0.0 0.0 0.00 0.00 0.00 63 1007.1
20260503231022 8 112 0.0 0.0 0.00 0.00 0.00 63 1007.2
20260503230521 9 112 0.0 0.0 0.00 0.00 0.00 63 1007.1
20260503230021 9 112 0.0 0.0 0.00 0.00 0.00 62 1007.1
20260503225521 9 112 0.0 0.0 0.00 0.00 0.00 61 1007.4
20260503225021 9 112 0.0 0.0 0.00 0.00 0.00 61 1007.4
20260503224520 9 112 0.0 0.0 0.00 0.00 0.00 60 1007.4
20260503224020 9 112 0.0 0.0 0.00 0.00 0.00 60 1007.4
20260503223520 9 112 0.0 0.0 0.00 0.00 0.00 61 1007.3
20260503223020 9 112 0.0 0.0 0.00 0.00 0.00 61 1007.3
20260503222519 9 112 0.0 0.0 0.00 0.00 0.00 60 1007.1
20260503222019 9 112 0.0 0.0 0.00 0.00 0.00 59 1007.2
20260503221519 10 112 0.0 0.0 0.00 0.00 0.00 59 1007.3
20260503221018 10 112 0.0 0.0 0.00 0.00 0.00 58 1007.2
20260503220518 10 112 0.0 0.0 0.00 0.00 0.00 57 1007.3
20260503220018 10 112 0.0 0.0 0.00 0.00 0.00 56 1007.5
20260503215518 10 112 0.0 0.0 0.00 0.00 0.00 56 1007.4
20260503215017 11 112 0.0 0.0 0.00 0.00 0.00 55 1007.4
20260503214517 11 112 0.0 0.0 0.00 0.00 0.00 54 1007.4
20260503214017 12 112 0.0 0.0 0.00 0.00 0.00 52 1007.3
20260503213517 12 112 0.0 0.0 0.00 0.00 0.00 52 1007.5
20260503213016 12 112 0.0 0.0 0.00 0.00 0.00 50 1007.5
20260503212516 13 112 0.0 0.0 0.00 0.00 0.00 49 1007.5
20260503212016 13 112 0.0 0.0 0.00 0.00 0.00 49 1007.6
20260503211516 13 112 0.0 0.0 0.00 0.00 0.00 49 1007.6
20260503211015 14 112 0.0 0.0 0.00 0.00 0.00 48 1007.4
20260503210515 14 112 0.0 0.0 0.00 0.00 0.00 48 1007.7
20260503210015 15 135 0.0 0.0 0.00 0.00 0.00 48 1007.8
20260503205514 15 135 0.0 0.0 0.00 0.00 0.00 47 1007.6
20260503205014 15 112 0.0 0.0 0.00 0.00 0.00 47 1007.6
20260503204514 15 135 0.0 0.0 0.00 0.00 0.00 47 1007.6
20260503204014 15 112 0.0 0.0 0.00 0.00 0.00 47 1007.5
20260503203513 15 112 0.0 0.0 0.00 0.00 0.00 47 1007.6
20260503203013 15 90 0.0 0.0 0.00 0.00 0.00 47 1007.6
20260503202513 15 112 0.0 0.0 0.00 0.00 0.00 47 1007.5
20260503202013 15 135 0.0 0.0 0.00 0.00 0.00 46 1007.4
20260503201512 15 135 0.0 0.0 0.00 0.00 0.00 46 1007.7
20260503201012 15 135 0.0 0.0 0.00 0.00 0.00 46 1007.8
20260503200512 15 112 0.0 0.0 0.00 0.00 0.00 46 1007.7
20260503200012 15 112 0.0 0.0 0.00 0.00 0.00 46 1007.6
20260503195511 15 112 0.0 0.0 0.00 0.00 0.00 46 1007.6
20260503195011 15 112 0.0 0.0 0.00 0.00 0.00 46 1007.8
20260503194511 15 112 0.0 0.0 0.00 0.00 0.00 46 1007.8
20260503194011 15 112 0.0 0.0 0.00 0.00 0.00 46 1007.6
20260503193510 15 112 0.0 0.0 0.00 0.00 0.00 45 1007.6
20260503193010 15 112 0.0 0.0 0.00 0.00 0.00 45 1007.4
20260503192510 15 112 0.0 0.0 0.00 0.00 0.00 44 1007.6
20260503192009 15 112 0.0 0.0 0.00 0.00 0.00 43 1007.5
20260503191509 16 112 0.0 0.0 0.00 0.00 0.00 43 1007.5
20260503191009 16 112 0.0 0.0 0.00 0.00 0.00 43 1007.4
20260503190509 16 112 0.0 0.0 0.00 0.00 0.00 42 1007.4
20260503190008 16 112 0.0 0.0 0.00 0.00 0.00 41 1007.4
20260503185508 16 112 0.0 0.0 0.00 0.00 0.00 39 1007.3
20260503185008 17 112 0.0 0.0 0.00 0.00 0.00 39 1007.4
20260503184508 17 112 0.0 0.0 0.00 0.00 0.00 38 1007.2
20260503184007 18 112 0.0 0.0 0.00 0.00 0.00 38 1007.1
20260503183507 18 112 0.0 0.0 0.00 0.00 0.00 37 1007.1
20260503183007 18 112 0.0 0.0 0.00 0.00 0.00 37 1007.0
20260503182507 18 135 0.0 0.0 0.00 0.00 0.00 36 1006.9
20260503182006 20 135 0.0 0.0 0.00 0.00 0.00 35 1006.9
20260503181506 20 135 0.0 0.0 0.00 0.00 0.00 35 1006.8
20260503181006 20 135 0.0 0.0 0.00 0.00 0.00 34 1006.9
20260503180505 21 112 0.0 0.0 0.00 0.00 0.00 33 1006.8
20260503180005 21 112 0.0 0.0 0.00 0.00 0.00 33 1006.8
20260503175505 22 157 0.0 0.0 0.00 0.00 0.00 32 1006.8
20260503175005 22 157 0.0 3.2 0.00 0.00 0.00 31 1006.9
20260503174504 23 135 0.0 0.0 0.00 0.00 0.00 30 1006.9
20260503174004 23 135 0.0 0.0 0.00 0.00 0.00 29 1007.0
20260503173504 25 112 0.0 0.0 0.00 0.00 0.00 28 1006.9
20260503173004 26 135 0.0 0.0 0.00 0.00 0.00 27 1006.9
20260503172504 27 135 0.0 0.0 0.00 0.00 0.00 25 1006.8
20260503172003 28 157 0.0 0.0 0.00 0.00 0.00 24 1006.8
20260503171503 28 157 0.0 0.0 0.00 0.00 0.00 24 1006.9
20260503171003 28 157 0.0 0.0 0.00 0.00 0.00 23 1006.9
20260503170502 28 157 0.0 0.0 0.00 0.00 0.00 23 1006.9
20260503150956 30 67 0.0 0.0 0.00 0.00 0.00 21 1007.1
20260503150456 30 135 0.0 9.7 0.00 0.00 0.00 21 1007.3
20260503130950 29 90 9.7 11.3 0.00 0.00 0.00 22 1008.7
20260503130450 30 180 9.7 16.1 0.00 0.00 0.00 21 1008.8